Weather History for KVQQ - May, 2013

Change the Weather History Date:

Saturday, May 18, 2013

  Actual Average (KJAX) Record (KJAX)
Temperature  
Mean Temperature 74 °F 75 °F  
Max Temperature 86 °F 86 °F 96 °F (1899)
Min Temperature 62 °F 63 °F 46 °F (2011)
Degree Days  
Heating Degree Days 0 0  
Month to date heating degree days 3  
Since 1 July heating degree days 1347  
Cooling Degree Days 9 10  
Month to date cooling degree days 141  
Year to date cooling degree days 337  
Growing Degree Days 24 (Base 50)    
Moisture  
Dew Point 67 °F    
Average Humidity 87    
Maximum Humidity 100    
Minimum Humidity 51    
Precipitation  
Precipitation 0.74 in 0.07 in 4.94 in (1920)
Month to date precipitation 1.20  
Year to date precipitation 14.28  
Snow  
Snow 0.00 in 0.00 in 0.00 in (2002)
Month to date snowfall 0.0  
Since 1 July snowfall T  
Snow Depth -    
Sea Level Pressure  
Sea Level Pressure 30.10 in    
Wind  
Wind Speed 2 mph (ESE)    
Max Wind Speed 17 mph    
Max Gust Speed 22 mph    
Visibility 6 miles    
Events Rain , Thunderstorm    
T = Trace of Precipitation, MM = Missing Value Source: NWS Daily Summary

Daily Weather History Graph

Daily Weather History Graph

Search for Another Location

Airport or City:

Trip Planner

Search our weather history database for the weather conditions in past years. The results will help you decide how hot, cold, wet, or windy it might be!

Date:

Astronomy

May. 18, 2013 Rise Set
Actual Time 6:31 AM EDT 8:16 PM EDT
Civil Twilight 6:05 AM EDT 8:42 PM EDT
Nautical Twilight 5:33 AM EDT 9:14 PM EDT
Astronomical Twilight 5:00 AM EDT 9:48 PM EDT
Moon 1:46 PM EDT (5/18) 1:53 AM EDT (5/18)
Length of Visible Light 14h 37m
Length of Day
13h 44m
First Quarter, 55% of the Moon is Illuminated
May 18
First Quarter
May 25
Full
May 31
Last Quarter
Jun 8
New
Jun 16
First Quarter

Hourly Weather History & Observations

Time (EDT) Temp. Heat Index Dew Point Humidity Pressure Visibility Wind Dir Wind Speed Gust Speed Precip Events Conditions
12:15 AM 71.6 °F - 68.0 °F 88% 30.12 in 10.0 mi Calm Calm - N/A   Clear
12:35 AM 69.8 °F - 66.2 °F 88% 30.12 in 10.0 mi Calm Calm - N/A   Clear
12:55 AM 68.0 °F - 66.2 °F 94% 30.12 in 10.0 mi Calm Calm - N/A   Clear
1:15 AM 68.0 °F - 66.2 °F 94% 30.11 in 10.0 mi Calm Calm - N/A   Clear
1:35 AM 68.0 °F - 66.2 °F 94% 30.11 in 10.0 mi Calm Calm - N/A   Clear
1:55 AM 68.0 °F - 66.2 °F 94% 30.11 in 10.0 mi SE 3.5 mph - N/A   Clear
2:15 AM 68.0 °F - 66.2 °F 94% 30.10 in 10.0 mi Calm Calm - N/A   Clear
2:35 AM 66.2 °F - 66.2 °F 100% 30.10 in 9.0 mi Calm Calm - N/A   Clear
2:55 AM 66.2 °F - 66.2 °F 100% 30.10 in 8.0 mi Calm Calm - N/A   Clear
3:15 AM 64.4 °F - 64.4 °F 100% 30.10 in 8.0 mi Calm Calm - N/A   Clear
3:35 AM 66.2 °F - 66.2 °F 100% 30.10 in 7.0 mi Calm Calm - N/A   Clear
3:55 AM 66.2 °F - 66.2 °F 100% 30.10 in 7.0 mi Calm Calm - N/A   Clear
4:15 AM 64.4 °F - 64.4 °F 100% 30.10 in 3.0 mi Calm Calm - N/A   Clear
4:35 AM 64.4 °F - 64.4 °F 100% 30.10 in 3.0 mi Calm Calm - N/A   Clear
4:55 AM 62.6 °F - 62.6 °F 100% 30.10 in 2.0 mi Calm Calm - N/A   Clear
5:15 AM 64.4 °F - 64.4 °F 100% 30.10 in 2.0 mi Calm Calm - N/A   Clear
5:35 AM 62.6 °F - 62.6 °F 100% 30.09 in 2.5 mi Calm Calm - N/A   Clear
5:55 AM 62.6 °F - 62.6 °F 100% 30.10 in 5.0 mi Calm Calm - N/A   Clear
6:15 AM 62.6 °F - 62.6 °F 100% 30.10 in 3.0 mi Calm Calm - N/A   Clear
6:35 AM 62.6 °F - 62.6 °F 100% 30.10 in 1.2 mi Calm Calm - N/A   Clear
6:50 AM 62.6 °F - 62.6 °F 100% 30.10 in 7.0 mi ESE 9.2 mph - N/A   Clear
7:50 AM 66.2 °F - 66.2 °F 100% 30.14 in 7.0 mi Calm Calm - N/A   Clear
8:50 AM 73.4 °F - 68.0 °F 83% 30.15 in 7.0 mi SSE 4.6 mph - N/A   Clear
9:50 AM 77.0 °F - 68.0 °F 74% 30.14 in 7.0 mi South 8.1 mph - N/A   Clear
10:50 AM 80.6 °F 83.9 °F 69.8 °F 70% 30.13 in 7.0 mi Variable 4.6 mph - N/A   Partly Cloudy
11:50 AM 80.6 °F 83.2 °F 68.0 °F 65% 30.12 in 7.0 mi SE 5.8 mph - N/A   Scattered Clouds
12:50 PM 84.2 °F 87.3 °F 68.0 °F 58% 30.12 in 7.0 mi Calm Calm - N/A   Mostly Cloudy
1:50 PM 86.0 °F 88.2 °F 66.2 °F 51% 30.10 in 7.0 mi SSE 3.5 mph - N/A   Mostly Cloudy
2:50 PM 86.0 °F 88.2 °F 66.2 °F 51% 30.08 in 7.0 mi South 5.8 mph - N/A   Mostly Cloudy
3:50 PM 86.0 °F 88.2 °F 66.2 °F 51% 30.06 in 7.0 mi ESE 10.4 mph - N/A   Mostly Cloudy
4:50 PM 86.0 °F 89.4 °F 68.0 °F 55% 30.03 in 7.0 mi SSE 10.4 mph - N/A   Scattered Clouds
5:50 PM 84.2 °F 87.3 °F 68.0 °F 58% 30.03 in 7.0 mi ESE 12.7 mph - N/A   Clear
6:50 PM 80.6 °F 82.7 °F 66.2 °F 61% 30.03 in 7.0 mi SE 16.1 mph - N/A   Clear
7:50 PM 77.0 °F - 66.2 °F 69% 30.05 in 7.0 mi East 17.3 mph - N/A   Clear
8:15 PM 77.0 °F - 68.0 °F 74% 30.06 in 10.0 mi ENE 5.8 mph - N/A Thunderstorm Partly Cloudy
8:35 PM 77.0 °F - 68.0 °F 74% 30.08 in 10.0 mi North 4.6 mph - N/A Thunderstorm Thunderstorm
8:55 PM 73.4 °F - 71.6 °F 94% 30.09 in 0.5 mi East 8.1 mph 21.9 mph 0.46 in Rain , Thunderstorm Heavy Rain
9:15 PM 71.6 °F - 69.8 °F 94% 30.09 in 3.0 mi ESE 6.9 mph - 0.02 in Rain , Thunderstorm Light Rain
9:35 PM 69.8 °F - 68.0 °F 94% 30.10 in 7.0 mi Calm Calm - 0.03 in Rain , Thunderstorm Light Rain
9:55 PM 69.8 °F - 68.0 °F 94% 30.12 in 1.5 mi NE 3.5 mph - 0.08 in Rain Light Rain
10:15 PM 69.8 °F - 69.8 °F 100% 30.13 in 3.0 mi ENE 3.5 mph - 0.02 in Rain Light Rain
10:35 PM 69.8 °F - 69.8 °F 100% 30.12 in 1.2 mi Calm Calm - 0.15 in Rain , Thunderstorm Heavy Rain
10:55 PM 69.8 °F - 69.8 °F 100% 30.11 in 4.0 mi SE 3.5 mph - 0.20 in Rain Light Rain
11:15 PM 69.8 °F - 69.8 °F 100% 30.10 in 10.0 mi SE 4.6 mph - N/A   Scattered Clouds
11:35 PM 69.8 °F - 69.8 °F 100% 30.10 in 9.0 mi Calm Calm - N/A   Partly Cloudy
11:55 PM 68.0 °F - 68.0 °F 100% 30.10 in 7.0 mi Calm Calm - N/A   Clear